Regional Weather Roundup
Issued by NWS Memphis, TN

Home | Current Version | Previous Version | Text Only | Print | Product List | Glossary On
Versions: 1 2 3 4 5 6 7 8 9 10 11 12 13 14 15 16 17 18 19 20 21 22 23 24 25 26 27 28 29 30 31 32 33 34 35 36 37 38 39 40 41 42 43 44 45 46 47 48 49 50
000
ASUS44 KMEG 230810
RWRMEG
MEMPHIS CWA HOURLY WEATHER ROUNDUP
NATIONAL WEATHER SERVICE MEMPHIS TN
300 AM CDT WED JUL 23 2014

...WEST TENNESSEE...

CITY           SKY/WX    TMP DP  RH WIND       PRES   REMARKS
MEMPHIS INTL   PTCLDY    77  70  79 N5        30.05F
NWS MEMPHIS      N/A     74 N/A N/A MISG        N/A
JACKSON        CLEAR     73  71  93 S5        30.05F FOG
LEXINGTON        N/A     70  70 100 CALM      30.05F VSB 3/4
SAVANNAH       CLEAR     71  71 100 CALM      30.06F
DYERSBURG      CLEAR     72  63  73 CALM      30.05F
UNION CITY     CLEAR     72  72 100 CALM      30.04S
PARIS          CLEAR     70  68  93 CALM      30.06F


...EASTERN ARKANSAS...

CITY           SKY/WX    TMP DP  RH WIND       PRES   REMARKS
JONESBORO      CLEAR     72  68  87 CALM      30.04F
WEST MEMPHIS   CLEAR     72  72 100 NW3       30.04F FOG
BATESVILLE     CLEAR     73  68  83 CALM      30.06F
NEWPORT        CLEAR     73  70  91 SW3       30.06F
WALNUT RIDGE   CLEAR     73  57  56 W6        30.05R
BLYTHEVILLE    CLEAR     74  70  87 SW3       30.04F
SEARCY         CLEAR     69  69 100 CALM      30.07F FOG
STUTTGART      CLEAR     73  70  88 CALM      30.06F
PINE BLUFF     CLEAR     70  69  97 CALM      30.06F FOG
MONTICELLO     CLEAR     71  69  93 CALM      30.06R


...NORTH MISSISSIPPI...

CITY           SKY/WX    TMP DP  RH WIND       PRES   REMARKS
TUPELO         PTCLDY    74  71  91 CALM      30.04F
OLIVE BRANCH   CLEAR     73  73 100 CALM      30.06S
CLARKSDALE     CLEAR     73  73 100 CALM      30.05F
CORINTH        FOG       72  70  94 CALM      30.05F VSB<1/4
GRENADA        PTCLDY    70  68  94 CALM      30.05R
GREENWOOD      FOG       72  71  97 NW5       30.04S VSB 1
COLUMBUS       MOCLDY    74  74 100 E1        30.04F
STARKVILLE     FAIR      70  70 100 W3        30.04S FOG
GOLDEN TRIANGL CLOUDY    73  70  88 NE5       30.04F


...SOUTHEAST MISSOURI...

CITY           SKY/WX    TMP DP  RH WIND       PRES   REMARKS
WEST PLAINS    PTCLDY    74  68  81 SW5       30.09F
POPLAR BLUFF   PTCLDY    73  68  84 CALM      30.04S
CAPE GIRARDEAU PTCLDY    71  68  90 CALM      30.03F


...NORTHWEST ALABAMA...

CITY           SKY/WX    TMP DP  RH WIND       PRES   REMARKS
MUSCLE SHOALS  PTCLDY    75  72  88 CALM      30.07S FOG


...MIDDLE TENNESSEE...

CITY           SKY/WX    TMP DP  RH WIND       PRES   REMARKS
NASHVILLE      PTCLDY    73  71  93 CALM      30.06F
CLARKSVILLE    CLEAR     75  72  90 CALM      30.05F
DICKSON        CLEAR     73  72  94 W5        30.07F
COLUMBIA       CLOUDY    73  73 100 CALM      30.06F
LAWRENCEBURG   PTCLDY    71  71 100 CALM      30.07
LEWISBURG      CLOUDY    74  72  93 CALM      30.08S


...WESTERN KENTUCKY...

CITY           SKY/WX    TMP DP  RH WIND       PRES   REMARKS
PADUCAH        CLEAR     72  69  90 CALM      30.03F FOG
FORT CAMPBELL  CLEAR     74  74 100 SW5       30.05F


...CENTRAL ARKANSAS...

CITY           SKY/WX    TMP DP  RH WIND       PRES   REMARKS
LITTLE ROCK    CLEAR     73  69  87 SW3       30.06F


SKY/WX REPORTED AS FAIR MEANS FEW OR NO CLOUDS BELOW
12 THOUSAND FEET.



USA.gov is the U.S. government's official web portal to all federal, state and local government web resources and services.